N624JX KAPA-KBOS

Flight info

Callsign N624JX
Flight time 2h 58m
Altitude 41000
Route ECHOO1 ZIRKL MCK J44 LNK/N0520F450 OVR OBK SVM DKK PONCT JFUND2
Aircraft C750/M-SBDE3FGHRWXY/S

Departure

Time 2026-05-05 22:51
Airport Centennial Airport (KAPA)

Arrival

Time 2026-05-06 01:49
Airport Boston Logan International Airport (KBOS)
Time Latitude Longitude Altitude Speed Heading
2026-05-05 22:32 39.57813 -104.84851 5807 ft 0 kts 90°
2026-05-05 22:41 39.57812 -104.84849 5816 ft 1 kts 95°
2026-05-05 22:41 39.57805 -104.84844 5823 ft 1 kts 168°
2026-05-05 22:41 39.57803 -104.84853 5820 ft 2 kts 268°
2026-05-05 22:41 39.57801 -104.84881 5817 ft 3 kts 248°
2026-05-05 22:42 39.57781 -104.84888 5821 ft 3 kts 181°
2026-05-05 22:42 39.57760 -104.84887 5821 ft 3 kts 178°
2026-05-05 22:42 39.57743 -104.84906 5820 ft 5 kts 249°
2026-05-05 22:42 39.57737 -104.84962 5821 ft 7 kts 241°
2026-05-05 22:43 39.57685 -104.84973 5827 ft 7 kts 178°
2026-05-05 22:43 39.57637 -104.84971 5825 ft 8 kts 178°
2026-05-05 22:43 39.57580 -104.84968 5827 ft 8 kts 178°
2026-05-05 22:43 39.57524 -104.84965 5831 ft 8 kts 178°
2026-05-05 22:44 39.57474 -104.84963 5834 ft 6 kts 178°
2026-05-05 22:44 39.57437 -104.84962 5837 ft 4 kts 178°
2026-05-05 22:44 39.57413 -104.84960 5839 ft 3 kts 178°
2026-05-05 22:44 39.57385 -104.84959 5840 ft 5 kts 178°
2026-05-05 22:45 39.57337 -104.84957 5842 ft 9 kts 178°
2026-05-05 22:45 39.57253 -104.84953 5843 ft 15 kts 178°
2026-05-05 22:45 39.57150 -104.84948 5846 ft 13 kts 178°
2026-05-05 22:45 39.57077 -104.84945 5850 ft 7 kts 178°
2026-05-05 22:46 39.57034 -104.84943 5852 ft 7 kts 179°
2026-05-05 22:46 39.56964 -104.84940 5854 ft 13 kts 178°
2026-05-05 22:46 39.56844 -104.84934 5853 ft 21 kts 178°
2026-05-05 22:46 39.56700 -104.84927 5862 ft 19 kts 178°
2026-05-05 22:47 39.56582 -104.84922 5862 ft 16 kts 178°
2026-05-05 22:47 39.56475 -104.84917 5874 ft 16 kts 178°
2026-05-05 22:47 39.56370 -104.84913 5867 ft 14 kts 178°
2026-05-05 22:47 39.56287 -104.84909 5877 ft 10 kts 178°
2026-05-05 22:48 39.56224 -104.84905 5876 ft 9 kts 178°
2026-05-05 22:48 39.56151 -104.84903 5883 ft 13 kts 179°
2026-05-05 22:48 39.56041 -104.84897 5882 ft 17 kts 178°
2026-05-05 22:48 39.55941 -104.84893 5887 ft 12 kts 178°
2026-05-05 22:49 39.55869 -104.84889 5891 ft 10 kts 178°
2026-05-05 22:49 39.55788 -104.84885 5893 ft 14 kts 178°
2026-05-05 22:49 39.55706 -104.84882 5892 ft 9 kts 183°
2026-05-05 22:49 39.55682 -104.84929 5892 ft 8 kts 267°
2026-05-05 22:50 39.55681 -104.84999 5893 ft 6 kts 277°
2026-05-05 22:50 39.55705 -104.85023 5893 ft 3 kts 352°
2026-05-05 22:50 39.55762 -104.85026 5893 ft 28 kts 358°
2026-05-05 22:50 39.56276 -104.85049 5876 ft 118 kts 358°
2026-05-05 22:51 39.57267 -104.85094 5907 ft 157 kts 358°
2026-05-05 22:51 39.58370 -104.85099 6487 ft 159 kts
2026-05-05 22:51 39.59260 -104.84262 6863 ft 173 kts 64°
2026-05-05 22:51 39.59198 -104.82675 7228 ft 195 kts 114°
2026-05-05 22:52 39.58322 -104.81236 7813 ft 208 kts 128°
2026-05-05 22:52 39.57343 -104.79778 8033 ft 223 kts 128°
2026-05-05 22:52 39.56318 -104.78159 8037 ft 242 kts 127°
2026-05-05 22:52 39.55223 -104.76398 8040 ft 259 kts 127°
2026-05-05 22:53 39.54054 -104.74532 8107 ft 272 kts 128°
2026-05-05 22:53 39.52875 -104.72626 9032 ft 269 kts 128°
2026-05-05 22:53 39.51794 -104.70634 9709 ft 277 kts 117°
2026-05-05 22:53 39.51492 -104.68136 10253 ft 291 kts 90°
2026-05-05 22:54 39.52068 -104.65545 10601 ft 311 kts 67°
2026-05-05 22:54 39.53115 -104.63035 11038 ft 323 kts 63°
2026-05-05 22:54 39.54216 -104.60440 11453 ft 334 kts 64°
2026-05-05 22:54 39.55290 -104.57709 11840 ft 346 kts 65°
2026-05-05 22:55 39.56386 -104.54880 12246 ft 356 kts 63°
2026-05-05 22:55 39.57542 -104.51991 12671 ft 367 kts 62°
2026-05-05 22:55 39.58740 -104.49021 13070 ft 376 kts 62°
2026-05-05 22:55 39.59949 -104.45972 13476 ft 386 kts 62°
2026-05-05 22:56 39.61186 -104.42834 13866 ft 396 kts 62°
2026-05-05 22:56 39.62457 -104.39628 14377 ft 402 kts 62°
2026-05-05 22:56 39.63742 -104.36394 14955 ft 405 kts 61°
2026-05-05 22:56 39.65037 -104.33120 15516 ft 410 kts 61°
2026-05-05 22:57 39.66342 -104.29814 16068 ft 414 kts 61°
2026-05-05 22:57 39.67661 -104.26473 16531 ft 418 kts 61°
2026-05-05 22:57 39.68993 -104.23098 17030 ft 422 kts 61°
2026-05-05 22:57 39.70335 -104.19689 17534 ft 426 kts 61°
2026-05-05 22:58 39.71675 -104.16283 18006 ft 430 kts 60°
2026-05-05 22:58 39.73042 -104.12802 18502 ft 434 kts 60°
2026-05-05 22:58 39.74418 -104.09297 19019 ft 436 kts 60°
2026-05-05 22:58 39.75798 -104.05781 19570 ft 438 kts 61°
2026-05-05 22:59 39.77184 -104.02238 20096 ft 441 kts 61°
2026-05-05 22:59 39.78578 -103.98673 20748 ft 443 kts 61°
2026-05-05 22:59 39.79979 -103.95088 21390 ft 446 kts 61°
2026-05-05 22:59 39.81388 -103.91479 22028 ft 449 kts 61°
2026-05-05 23:00 39.84230 -103.84178 23274 ft 456 kts 62°
2026-05-05 23:00 39.85669 -103.80477 23787 ft 460 kts 62°
2026-05-05 23:00 39.86626 -103.78011 24142 ft 462 kts 62°
2026-05-05 23:01 39.88388 -103.72888 24701 ft 469 kts 73°
2026-05-05 23:01 39.88796 -103.70121 25023 ft 470 kts 81°
2026-05-05 23:01 39.89263 -103.65903 25546 ft 472 kts 82°
2026-05-05 23:01 39.89730 -103.61655 26020 ft 476 kts 81°
2026-05-05 23:02 39.90229 -103.57381 26497 ft 479 kts 81°
2026-05-05 23:02 39.90735 -103.53081 26980 ft 482 kts 81°
2026-05-05 23:02 39.91225 -103.48741 27488 ft 486 kts 81°
2026-05-05 23:02 39.91711 -103.44356 27842 ft 492 kts 81°
2026-05-05 23:03 39.92213 -103.39929 28331 ft 495 kts 81°
2026-05-05 23:03 39.92721 -103.35479 28813 ft 499 kts 81°
2026-05-05 23:03 39.93224 -103.30992 29279 ft 502 kts 81°
2026-05-05 23:03 39.93725 -103.26473 29735 ft 506 kts 81°
2026-05-05 23:04 39.94231 -103.21925 30169 ft 509 kts 81°
2026-05-05 23:04 39.94742 -103.17342 30499 ft 514 kts 81°
2026-05-05 23:04 39.95255 -103.12711 30795 ft 519 kts 81°
2026-05-05 23:04 39.95769 -103.08024 31042 ft 525 kts 82°
2026-05-05 23:05 39.96286 -103.03307 31489 ft 527 kts 82°
2026-05-05 23:05 39.96805 -102.98568 31861 ft 530 kts 82°
2026-05-05 23:05 39.97325 -102.93794 32248 ft 533 kts 83°
2026-05-05 23:05 39.97845 -102.88995 32647 ft 536 kts 83°
2026-05-05 23:06 39.98365 -102.84170 33042 ft 539 kts 83°
2026-05-05 23:06 39.98888 -102.79317 33445 ft 542 kts 83°
2026-05-05 23:06 39.99411 -102.74434 33804 ft 546 kts 84°
2026-05-05 23:06 39.99937 -102.69500 34072 ft 552 kts 84°
2026-05-05 23:07 40.00464 -102.64535 34478 ft 553 kts 84°
2026-05-05 23:07 40.00991 -102.59574 34956 ft 552 kts 84°
2026-05-05 23:07 40.01513 -102.54620 35418 ft 552 kts 84°
2026-05-05 23:07 40.02032 -102.49661 35878 ft 551 kts 84°
2026-05-05 23:08 40.02549 -102.44707 36343 ft 551 kts 84°
2026-05-05 23:08 40.03066 -102.39750 36832 ft 551 kts 85°
2026-05-05 23:08 40.03580 -102.34788 37203 ft 554 kts 85°
2026-05-05 23:08 40.04094 -102.29803 37666 ft 554 kts 85°
2026-05-05 23:09 40.04605 -102.24825 38188 ft 553 kts 85°
2026-05-05 23:09 40.05114 -102.19852 38707 ft 553 kts 85°
2026-05-05 23:09 40.05620 -102.14884 39122 ft 552 kts 85°
2026-05-05 23:09 40.06123 -102.09920 39566 ft 551 kts 85°
2026-05-05 23:10 40.06622 -102.04973 40026 ft 549 kts 85°
2026-05-05 23:10 40.07119 -102.00037 40450 ft 549 kts 84°
2026-05-05 23:10 40.07613 -101.95094 40843 ft 549 kts 84°
2026-05-05 23:10 40.08106 -101.90136 41028 ft 555 kts 84°
2026-05-05 23:11 40.09112 -101.79968 41036 ft 574 kts 84°
2026-05-05 23:11 40.10142 -101.69469 41044 ft 592 kts 84°
2026-05-05 23:12 40.11192 -101.58659 41049 ft 608 kts 84°
2026-05-05 23:12 40.12249 -101.47669 41047 ft 611 kts 84°
2026-05-05 23:13 40.13297 -101.36644 41046 ft 612 kts 84°
2026-05-05 23:13 40.14343 -101.25604 41033 ft 612 kts 84°
2026-05-05 23:14 40.15380 -101.14543 41032 ft 613 kts 85°
2026-05-05 23:14 40.16404 -101.03483 41035 ft 613 kts 85°
2026-05-05 23:15 40.17420 -100.92413 41033 ft 613 kts 85°
2026-05-05 23:15 40.18423 -100.81350 41032 ft 613 kts 85°
2026-05-05 23:16 40.19418 -100.70277 41030 ft 612 kts 85°
2026-05-05 23:16 40.20473 -100.59220 41010 ft 614 kts 81°
2026-05-05 23:17 40.22625 -100.48388 41025 ft 617 kts 73°
2026-05-05 23:17 40.24883 -100.37559 41038 ft 617 kts 77°
2026-05-05 23:18 40.27029 -100.26683 41015 ft 617 kts 75°
2026-05-05 23:18 40.29281 -100.15843 41012 ft 618 kts 76°
2026-05-05 23:19 40.31412 -100.04945 41013 ft 618 kts 75°
2026-05-05 23:19 40.33632 -99.94071 41020 ft 618 kts 76°
2026-05-05 23:20 40.35763 -99.83156 41018 ft 618 kts 76°
2026-05-05 23:20 40.37952 -99.72221 41020 ft 620 kts 76°
2026-05-05 23:21 40.40085 -99.61272 41019 ft 619 kts 76°
2026-05-05 23:21 40.42223 -99.50397 41022 ft 620 kts 76°
2026-05-05 23:22 40.44350 -99.39421 41010 ft 623 kts 76°
2026-05-05 23:22 40.46482 -99.28413 41000 ft 622 kts 76°
2026-05-05 23:23 40.48598 -99.17404 41005 ft 622 kts 76°
2026-05-05 23:23 40.50703 -99.06392 41005 ft 622 kts 76°
2026-05-05 23:24 40.52807 -98.95338 41008 ft 623 kts 76°
2026-05-05 23:24 40.54895 -98.84283 41007 ft 623 kts 76°
2026-05-05 23:25 40.56975 -98.73224 41001 ft 623 kts 76°
2026-05-05 23:25 40.59047 -98.62132 41019 ft 625 kts 76°
2026-05-05 23:26 40.61102 -98.51086 41002 ft 620 kts 76°
2026-05-05 23:26 40.63141 -98.40050 40994 ft 621 kts 76°
2026-05-05 23:27 40.65171 -98.29001 41004 ft 622 kts 76°
2026-05-05 23:27 40.67193 -98.17931 41006 ft 622 kts 76°
2026-05-05 23:28 40.69217 -98.06785 41004 ft 622 kts 77°
2026-05-05 23:28 40.71218 -97.95701 40988 ft 622 kts 77°
2026-05-05 23:29 40.73215 -97.84574 40984 ft 624 kts 77°
2026-05-05 23:29 40.75201 -97.73441 40989 ft 624 kts 77°
2026-05-05 23:30 40.77177 -97.62294 40992 ft 624 kts 77°
2026-05-05 23:30 40.79146 -97.51126 40986 ft 627 kts 77°
2026-05-05 23:31 40.81108 -97.39928 41000 ft 626 kts 77°
2026-05-05 23:31 40.83058 -97.28731 40998 ft 626 kts 77°
2026-05-05 23:32 40.84996 -97.17526 40998 ft 626 kts 77°
2026-05-05 23:32 40.86925 -97.06314 40991 ft 626 kts 77°
2026-05-05 23:33 40.88840 -96.95106 40988 ft 625 kts 77°
2026-05-05 23:33 40.90745 -96.83890 40969 ft 625 kts 77°
2026-05-05 23:34 40.92717 -96.72743 40961 ft 627 kts 73°
2026-05-05 23:34 40.95447 -96.61816 40988 ft 623 kts 70°
2026-05-05 23:35 40.98117 -96.50910 40992 ft 623 kts 72°
2026-05-05 23:35 41.00774 -96.39990 40985 ft 624 kts 70°
2026-05-05 23:36 41.03455 -96.29057 40981 ft 624 kts 71°
2026-05-05 23:36 41.06080 -96.18104 40977 ft 624 kts 71°
2026-05-05 23:37 41.08742 -96.07166 40974 ft 624 kts 71°
2026-05-05 23:37 41.11352 -95.96185 40957 ft 624 kts 71°
2026-05-05 23:38 41.13990 -95.85210 40959 ft 625 kts 71°
2026-05-05 23:38 41.16579 -95.74209 40958 ft 624 kts 72°
2026-05-05 23:39 41.18570 -95.62983 40959 ft 626 kts 78°
2026-05-05 23:39 41.20449 -95.51711 40963 ft 625 kts 76°
2026-05-05 23:40 41.22396 -95.40456 40988 ft 626 kts 77°
2026-05-05 23:40 41.24247 -95.29195 40957 ft 624 kts 77°
2026-05-05 23:41 41.26166 -95.17926 40956 ft 625 kts 77°
2026-05-05 23:41 41.28009 -95.06639 40955 ft 625 kts 77°
2026-05-05 23:42 41.29890 -94.95362 40954 ft 625 kts 77°
2026-05-05 23:42 41.31430 -94.85890 40951 ft 626 kts 77°
2026-05-05 23:43 41.33277 -94.74582 40951 ft 625 kts 77°
2026-05-05 23:43 41.35108 -94.63264 40940 ft 626 kts 77°
2026-05-05 23:44 41.36926 -94.51942 40936 ft 626 kts 77°
2026-05-05 23:44 41.38738 -94.40612 40939 ft 626 kts 77°
2026-05-05 23:45 41.40534 -94.29271 40930 ft 626 kts 77°
2026-05-05 23:45 41.42324 -94.17926 40930 ft 625 kts 77°
2026-05-05 23:46 41.44100 -94.06564 40924 ft 626 kts 77°
2026-05-05 23:46 41.45867 -93.95203 40923 ft 626 kts 78°
2026-05-05 23:47 41.47621 -93.83828 40925 ft 626 kts 78°
2026-05-05 23:47 41.49365 -93.72456 40919 ft 626 kts 78°
2026-05-05 23:48 41.51086 -93.61148 40925 ft 626 kts 78°
2026-05-05 23:48 41.52804 -93.49780 40925 ft 625 kts 78°
2026-05-05 23:49 41.54513 -93.38392 40928 ft 625 kts 78°
2026-05-05 23:49 41.56210 -93.27009 40913 ft 625 kts 78°
2026-05-05 23:50 41.57896 -93.15612 40911 ft 625 kts 78°
2026-05-05 23:50 41.59570 -93.04212 40914 ft 625 kts 78°
2026-05-05 23:51 41.61234 -92.92804 40907 ft 626 kts 78°
2026-05-05 23:51 41.62887 -92.81387 40909 ft 626 kts 78°
2026-05-05 23:52 41.64529 -92.69962 40918 ft 626 kts 78°
2026-05-05 23:52 41.66158 -92.58534 40912 ft 626 kts 78°
2026-05-05 23:53 41.67777 -92.47105 40914 ft 626 kts 78°
2026-05-05 23:53 41.69384 -92.35663 40900 ft 626 kts 78°
2026-05-05 23:54 41.70980 -92.24221 40883 ft 625 kts 78°
2026-05-05 23:54 41.72563 -92.12779 40881 ft 625 kts 78°
2026-05-05 23:55 41.74135 -92.01334 40876 ft 625 kts 78°
2026-05-05 23:55 41.75696 -91.89879 40877 ft 625 kts 78°
2026-05-05 23:56 41.77243 -91.78435 40873 ft 624 kts 78°
2026-05-05 23:56 41.78779 -91.66992 40873 ft 624 kts 79°
2026-05-05 23:57 41.80303 -91.55536 40877 ft 624 kts 79°
2026-05-05 23:57 41.81815 -91.44081 40899 ft 624 kts 79°
2026-05-05 23:58 41.83317 -91.32624 40896 ft 624 kts 79°
2026-05-05 23:58 41.84806 -91.21161 40896 ft 624 kts 79°
2026-05-05 23:59 41.86283 -91.09693 40887 ft 624 kts 79°
2026-05-05 23:59 41.87750 -90.98223 40887 ft 624 kts 79°
2026-05-06 00:00 41.89205 -90.86747 40885 ft 624 kts 79°
2026-05-06 00:00 41.90648 -90.75261 40879 ft 624 kts 79°
2026-05-06 00:01 41.92078 -90.63793 40884 ft 623 kts 79°
2026-05-06 00:01 41.93497 -90.52319 40887 ft 623 kts 79°
2026-05-06 00:02 41.94903 -90.40844 40894 ft 623 kts 79°
2026-05-06 00:02 41.96298 -90.29361 40891 ft 623 kts 79°
2026-05-06 00:03 41.97681 -90.17877 40875 ft 622 kts 79°
2026-05-06 00:03 41.99053 -90.06393 40888 ft 623 kts 79°
2026-05-06 00:04 42.00413 -89.94903 40893 ft 622 kts 79°
2026-05-06 00:04 42.01762 -89.83404 40895 ft 623 kts 80°
2026-05-06 00:05 42.03755 -89.66223 40897 ft 623 kts 80°
2026-05-06 00:06 42.05076 -89.54711 40896 ft 623 kts 80°
2026-05-06 00:06 42.06385 -89.43191 40896 ft 623 kts 80°
2026-05-06 00:07 42.07683 -89.31668 40896 ft 623 kts 80°
2026-05-06 00:07 42.08977 -89.20060 40890 ft 623 kts 80°
2026-05-06 00:08 42.10254 -89.08510 40887 ft 623 kts 80°
2026-05-06 00:08 42.11518 -88.96962 40891 ft 623 kts 80°
2026-05-06 00:09 42.12771 -88.85405 40886 ft 623 kts 80°
2026-05-06 00:09 42.14013 -88.73836 40881 ft 624 kts 80°
2026-05-06 00:10 42.15235 -88.62342 40885 ft 624 kts 80°
2026-05-06 00:10 42.16454 -88.50765 40882 ft 624 kts 81°
2026-05-06 00:11 42.17670 -88.39105 40880 ft 624 kts 81°
2026-05-06 00:11 42.18866 -88.27513 40883 ft 625 kts 81°
2026-05-06 00:12 42.20043 -88.15995 40880 ft 624 kts 81°
2026-05-06 00:12 42.21215 -88.04403 40873 ft 624 kts 81°
2026-05-06 00:13 42.22309 -87.92803 40861 ft 624 kts 83°
2026-05-06 00:13 42.22990 -87.81120 40864 ft 625 kts 85°
2026-05-06 00:14 42.23712 -87.69446 40868 ft 624 kts 84°
2026-05-06 00:14 42.24400 -87.57763 40873 ft 625 kts 85°
2026-05-06 00:15 42.25078 -87.46076 40886 ft 624 kts 84°
2026-05-06 00:15 42.25755 -87.34389 40893 ft 625 kts 85°
2026-05-06 00:16 42.26402 -87.22694 40897 ft 625 kts 84°
2026-05-06 00:16 42.27057 -87.10998 40896 ft 625 kts 84°
2026-05-06 00:17 42.27683 -86.99299 40901 ft 625 kts 84°
2026-05-06 00:17 42.28311 -86.87598 40898 ft 625 kts 84°
2026-05-06 00:18 42.28916 -86.75892 40893 ft 625 kts 84°
2026-05-06 00:18 42.29517 -86.64188 40886 ft 624 kts 84°
2026-05-06 00:19 42.30100 -86.52489 40883 ft 625 kts 84°
2026-05-06 00:19 42.30676 -86.40782 40879 ft 625 kts 84°
2026-05-06 00:20 42.31237 -86.29074 40877 ft 625 kts 85°
2026-05-06 00:20 42.31788 -86.17358 40889 ft 625 kts 85°
2026-05-06 00:21 42.32326 -86.05651 40886 ft 624 kts 85°
2026-05-06 00:21 42.32852 -85.93939 40889 ft 624 kts 85°
2026-05-06 00:22 42.33367 -85.82221 40888 ft 625 kts 85°
2026-05-06 00:22 42.33868 -85.70516 40904 ft 624 kts 85°
2026-05-06 00:22 42.34112 -85.64693 41345 ft 617 kts 85°
2026-05-06 00:23 42.34352 -85.58932 41808 ft 611 kts 85°
2026-05-06 00:23 42.34586 -85.53235 42280 ft 604 kts 85°
2026-05-06 00:23 42.34816 -85.47591 42756 ft 598 kts 85°
2026-05-06 00:23 42.35039 -85.42006 43252 ft 592 kts 85°
2026-05-06 00:24 42.35258 -85.36481 43752 ft 586 kts 85°
2026-05-06 00:24 42.35472 -85.31008 44243 ft 579 kts 85°
2026-05-06 00:24 42.35682 -85.25600 44720 ft 573 kts 85°
2026-05-06 00:24 42.35821 -85.21971 44883 ft 573 kts 85°
2026-05-06 00:25 42.36025 -85.16626 44868 ft 581 kts 85°
2026-05-06 00:25 42.36435 -85.05597 44881 ft 594 kts 85°
2026-05-06 00:26 42.36839 -84.94390 44888 ft 598 kts 85°
2026-05-06 00:26 42.37237 -84.83138 44884 ft 599 kts 85°
2026-05-06 00:27 42.37621 -84.71881 44871 ft 600 kts 85°
2026-05-06 00:27 42.37996 -84.60624 44870 ft 597 kts 85°
2026-05-06 00:28 42.38358 -84.49416 44869 ft 597 kts 85°
2026-05-06 00:28 42.38709 -84.38197 44869 ft 597 kts 85°
2026-05-06 00:29 42.39049 -84.26977 44853 ft 597 kts 85°
2026-05-06 00:29 42.39376 -84.15795 44853 ft 595 kts 86°
2026-05-06 00:30 42.39694 -84.04613 44853 ft 595 kts 86°
2026-05-06 00:30 42.40000 -83.93435 44849 ft 595 kts 86°
2026-05-06 00:31 42.40294 -83.82283 44849 ft 591 kts 86°
2026-05-06 00:31 42.40578 -83.71171 44843 ft 591 kts 86°
2026-05-06 00:32 42.40850 -83.60048 44850 ft 591 kts 86°
2026-05-06 00:32 42.41270 -83.48952 44854 ft 589 kts 85°
2026-05-06 00:33 42.41644 -83.37880 44844 ft 589 kts 85°
2026-05-06 00:33 42.42058 -83.26884 44839 ft 590 kts 85°
2026-05-06 00:34 42.42420 -83.15802 44831 ft 589 kts 85°
2026-05-06 00:34 42.42801 -83.04795 44824 ft 586 kts 85°
2026-05-06 00:35 42.43153 -82.93733 44828 ft 587 kts 85°
2026-05-06 00:35 42.43505 -82.82704 44829 ft 586 kts 85°
2026-05-06 00:36 42.43842 -82.71617 44805 ft 582 kts 86°
2026-05-06 00:36 42.44167 -82.60668 44812 ft 583 kts 86°
2026-05-06 00:37 42.44479 -82.49782 44834 ft 583 kts 86°
2026-05-06 00:37 42.44785 -82.38740 44821 ft 583 kts 86°
2026-05-06 00:38 42.45078 -82.27784 44832 ft 583 kts 86°
2026-05-06 00:38 42.45360 -82.16822 44833 ft 583 kts 86°
2026-05-06 00:39 42.45633 -82.05859 44831 ft 582 kts 86°
2026-05-06 00:39 42.45894 -81.94897 44834 ft 582 kts 86°
2026-05-06 00:40 42.46146 -81.83935 44838 ft 582 kts 87°
2026-05-06 00:40 42.46387 -81.72972 44848 ft 582 kts 87°
2026-05-06 00:41 42.46617 -81.62012 44856 ft 581 kts 87°
2026-05-06 00:41 42.46836 -81.51086 44849 ft 580 kts 87°
2026-05-06 00:42 42.47045 -81.40158 44857 ft 581 kts 87°
2026-05-06 00:42 42.47244 -81.29227 44861 ft 581 kts 87°
2026-05-06 00:43 42.47430 -81.18388 44862 ft 579 kts 87°
2026-05-06 00:43 42.47608 -81.07484 44861 ft 579 kts 87°
2026-05-06 00:44 42.47775 -80.96577 44867 ft 579 kts 88°
2026-05-06 00:44 42.47931 -80.85667 44874 ft 580 kts 88°
2026-05-06 00:45 42.48078 -80.74739 44875 ft 580 kts 88°
2026-05-06 00:45 42.48214 -80.63802 44871 ft 580 kts 88°
2026-05-06 00:46 42.48340 -80.52868 44867 ft 580 kts 88°
2026-05-06 00:46 42.48456 -80.41944 44874 ft 580 kts 88°
2026-05-06 00:47 42.48561 -80.31021 44876 ft 580 kts 88°
2026-05-06 00:47 42.48655 -80.20097 44875 ft 580 kts 88°
2026-05-06 00:48 42.48740 -80.09189 44885 ft 578 kts 88°
2026-05-06 00:48 42.48813 -79.98304 44888 ft 578 kts 88°
2026-05-06 00:49 42.48877 -79.87411 44885 ft 578 kts 88°
2026-05-06 00:49 42.48930 -79.76522 44896 ft 577 kts 89°
2026-05-06 00:50 42.48972 -79.65684 44892 ft 576 kts 89°
2026-05-06 00:50 42.49005 -79.54838 44887 ft 576 kts 89°
2026-05-06 00:51 42.49027 -79.43990 44886 ft 576 kts 89°
2026-05-06 00:51 42.49039 -79.33182 44881 ft 573 kts 89°
2026-05-06 00:52 42.49343 -79.22403 44884 ft 572 kts 83°
2026-05-06 00:52 42.50182 -79.11679 44912 ft 573 kts 83°
2026-05-06 00:53 42.50868 -79.00928 44879 ft 572 kts 84°
2026-05-06 00:53 42.51635 -78.90195 44882 ft 572 kts 84°
2026-05-06 00:54 42.52338 -78.79454 44876 ft 572 kts 84°
2026-05-06 00:54 42.53058 -78.68711 44876 ft 572 kts 84°
2026-05-06 00:55 42.53760 -78.57950 44875 ft 573 kts 84°
2026-05-06 00:55 42.54451 -78.47176 44874 ft 573 kts 84°
2026-05-06 00:56 42.55138 -78.36401 44872 ft 574 kts 84°
2026-05-06 00:56 42.55808 -78.25620 44874 ft 574 kts 84°
2026-05-06 00:57 42.56474 -78.14836 44868 ft 574 kts 84°
2026-05-06 00:57 42.57125 -78.04054 44864 ft 574 kts 84°
2026-05-06 00:58 42.57770 -77.93271 44878 ft 574 kts 85°
2026-05-06 00:58 42.58403 -77.82454 44863 ft 575 kts 85°
2026-05-06 00:59 42.59028 -77.71635 44898 ft 575 kts 85°
2026-05-06 00:59 42.59642 -77.60812 44901 ft 575 kts 85°
2026-05-06 01:00 42.60245 -77.50005 44891 ft 572 kts 85°
2026-05-06 01:00 42.60838 -77.39211 44880 ft 574 kts 85°
2026-05-06 01:01 42.61420 -77.28415 44895 ft 573 kts 85°
2026-05-06 01:01 42.61991 -77.17631 44901 ft 569 kts 86°
2026-05-06 01:02 42.62546 -77.06958 44900 ft 567 kts 86°
2026-05-06 01:02 42.63093 -76.96261 44897 ft 568 kts 86°
2026-05-06 01:03 42.63629 -76.85559 44839 ft 568 kts 86°
2026-05-06 01:03 42.64151 -76.74953 44858 ft 561 kts 86°
2026-05-06 01:04 42.64662 -76.64358 44866 ft 562 kts 87°
2026-05-06 01:04 42.65163 -76.53800 44876 ft 564 kts 87°
2026-05-06 01:05 42.65655 -76.43198 44864 ft 560 kts 87°
2026-05-06 01:05 42.66139 -76.32561 44859 ft 561 kts 88°
2026-05-06 01:06 42.66610 -76.21985 44854 ft 561 kts 88°
2026-05-06 01:06 42.67072 -76.11410 44848 ft 560 kts 88°
2026-05-06 01:07 42.67524 -76.00823 44842 ft 561 kts 88°
2026-05-06 01:07 42.67963 -75.90307 44853 ft 561 kts 88°
2026-05-06 01:08 42.68396 -75.79712 44854 ft 561 kts 88°
2026-05-06 01:08 42.68819 -75.69113 44858 ft 563 kts 88°
2026-05-06 01:09 42.69167 -75.60220 44860 ft 562 kts 88°
2026-05-06 01:09 42.69573 -75.49609 44862 ft 562 kts 88°
2026-05-06 01:10 42.69969 -75.38990 44863 ft 564 kts 89°
2026-05-06 01:10 42.70356 -75.28335 44857 ft 564 kts 89°
2026-05-06 01:11 42.70734 -75.17689 44850 ft 564 kts 89°
2026-05-06 01:11 42.71101 -75.07031 44841 ft 564 kts 89°
2026-05-06 01:12 42.71460 -74.96346 44839 ft 567 kts 89°
2026-05-06 01:12 42.71810 -74.85646 44839 ft 566 kts 89°
2026-05-06 01:13 42.72149 -74.74946 44838 ft 566 kts 89°
2026-05-06 01:13 42.72478 -74.64246 44835 ft 566 kts 89°
2026-05-06 01:14 42.72954 -74.48197 44828 ft 566 kts 89°
2026-05-06 01:14 42.73258 -74.37498 44828 ft 566 kts 89°
2026-05-06 01:15 42.73552 -74.26761 44822 ft 570 kts 89°
2026-05-06 01:15 42.73840 -74.16000 44826 ft 569 kts 89°
2026-05-06 01:16 42.74114 -74.05235 44834 ft 569 kts 89°
2026-05-06 01:16 42.74381 -73.94465 44125 ft 573 kts 89°
2026-05-06 01:17 42.74510 -73.89070 43382 ft 569 kts 89°
2026-05-06 01:17 42.74635 -73.83700 42629 ft 567 kts 88°
2026-05-06 01:17 42.74685 -73.78334 41873 ft 567 kts 90°
2026-05-06 01:17 42.74643 -73.72961 41118 ft 569 kts 90°
2026-05-06 01:18 42.74595 -73.67572 40359 ft 570 kts 90°
2026-05-06 01:18 42.74560 -73.62184 39595 ft 569 kts 89°
2026-05-06 01:18 42.74529 -73.56819 38834 ft 566 kts 89°
2026-05-06 01:18 42.74484 -73.51461 38012 ft 566 kts 89°
2026-05-06 01:19 42.74433 -73.46101 37271 ft 568 kts 89°
2026-05-06 01:19 42.74385 -73.40714 36513 ft 569 kts 89°
2026-05-06 01:19 42.74337 -73.35329 35758 ft 571 kts 90°
2026-05-06 01:19 42.74284 -73.29925 34971 ft 572 kts 90°
2026-05-06 01:20 42.74225 -73.24532 34231 ft 570 kts 91°
2026-05-06 01:20 42.74165 -73.19125 33430 ft 572 kts 91°
2026-05-06 01:20 42.74104 -73.13744 32663 ft 565 kts 91°
2026-05-06 01:20 42.73774 -73.08466 31909 ft 556 kts 99°
2026-05-06 01:21 42.73173 -73.03307 31178 ft 549 kts 101°
2026-05-06 01:21 42.72534 -72.98228 30451 ft 541 kts 101°
2026-05-06 01:21 42.71949 -72.93213 29687 ft 532 kts 100°
2026-05-06 01:21 42.71411 -72.88270 28966 ft 526 kts 100°
2026-05-06 01:22 42.70850 -72.83387 28271 ft 520 kts 101°
2026-05-06 01:22 42.70269 -72.78631 27579 ft 514 kts 101°
2026-05-06 01:22 42.69696 -72.73863 26889 ft 508 kts 101°
2026-05-06 01:22 42.69152 -72.69139 26225 ft 503 kts 101°
2026-05-06 01:23 42.68609 -72.64466 25561 ft 498 kts 101°
2026-05-06 01:23 42.68051 -72.59849 24898 ft 492 kts 102°
2026-05-06 01:23 42.67487 -72.55280 24256 ft 489 kts 102°
2026-05-06 01:23 42.66938 -72.50771 23613 ft 474 kts 101°
2026-05-06 01:24 42.66424 -72.46475 22955 ft 447 kts 102°
2026-05-06 01:24 42.65929 -72.42415 22362 ft 427 kts 102°
2026-05-06 01:24 42.65438 -72.38479 21815 ft 419 kts 102°
2026-05-06 01:24 42.64956 -72.34602 21268 ft 415 kts 102°
2026-05-06 01:25 42.64485 -72.30751 20714 ft 412 kts 102°
2026-05-06 01:25 42.64036 -72.26919 20171 ft 410 kts 102°
2026-05-06 01:25 42.63610 -72.23108 19616 ft 405 kts 101°
2026-05-06 01:25 42.63179 -72.19359 19079 ft 400 kts 102°
2026-05-06 01:26 42.62737 -72.15643 18526 ft 397 kts 102°
2026-05-06 01:26 42.62302 -72.11965 17975 ft 393 kts 102°
2026-05-06 01:26 42.61877 -72.08312 17434 ft 390 kts 102°
2026-05-06 01:26 42.61452 -72.04681 16997 ft 390 kts 102°
2026-05-06 01:27 42.61018 -72.01067 16560 ft 388 kts 102°
2026-05-06 01:27 42.60565 -71.97473 16177 ft 385 kts 103°
2026-05-06 01:27 42.60114 -71.93896 15783 ft 384 kts 102°
2026-05-06 01:27 42.59674 -71.90332 15384 ft 382 kts 102°
2026-05-06 01:28 42.59238 -71.86805 15018 ft 378 kts 102°
2026-05-06 01:28 42.58798 -71.83294 14640 ft 377 kts 102°
2026-05-06 01:28 42.58256 -71.79834 14256 ft 375 kts 106°
2026-05-06 01:28 42.57718 -71.76423 13886 ft 374 kts 104°
2026-05-06 01:29 42.57214 -71.72916 13479 ft 373 kts 104°
2026-05-06 01:29 42.56679 -71.69489 13095 ft 370 kts 105°
2026-05-06 01:29 42.56117 -71.66086 12718 ft 369 kts 106°
2026-05-06 01:29 42.55580 -71.62739 12352 ft 367 kts 105°
2026-05-06 01:30 42.55056 -71.59403 11978 ft 353 kts 106°
2026-05-06 01:30 42.54381 -71.56233 11623 ft 350 kts 110°
2026-05-06 01:30 42.53735 -71.53063 11273 ft 347 kts 108°
2026-05-06 01:30 42.53106 -71.49867 10923 ft 346 kts 109°
2026-05-06 01:31 42.52456 -71.46743 10573 ft 344 kts 110°
2026-05-06 01:31 42.51797 -71.43643 10228 ft 337 kts 110°
2026-05-06 01:31 42.51180 -71.40659 9891 ft 324 kts 110°
2026-05-06 01:31 42.50577 -71.37743 9552 ft 319 kts 110°
2026-05-06 01:32 42.49977 -71.34861 9223 ft 317 kts 110°
2026-05-06 01:32 42.49405 -71.31981 8907 ft 316 kts 109°
2026-05-06 01:32 42.48852 -71.29149 8592 ft 314 kts 109°
2026-05-06 01:32 42.48276 -71.26264 8273 ft 312 kts 110°
2026-05-06 01:33 42.47702 -71.23424 7977 ft 312 kts 110°
2026-05-06 01:33 42.47135 -71.20596 7663 ft 311 kts 110°
2026-05-06 01:33 42.46587 -71.17767 7348 ft 311 kts 108°
2026-05-06 01:33 42.46592 -71.14849 6953 ft 309 kts 79°
2026-05-06 01:34 42.47352 -71.12214 6699 ft 293 kts 64°
2026-05-06 01:34 42.48265 -71.09773 6451 ft 288 kts 62°
2026-05-06 01:34 42.49214 -71.07395 6143 ft 286 kts 56°
2026-05-06 01:34 42.50653 -71.05675 5961 ft 269 kts 23°
2026-05-06 01:35 42.52376 -71.04699 6001 ft 267 kts 13°
2026-05-06 01:35 42.54131 -71.03858 6003 ft 268 kts 12°
2026-05-06 01:35 42.55896 -71.03010 6003 ft 270 kts 13°
2026-05-06 01:35 42.57662 -71.02132 5997 ft 270 kts 13°
2026-05-06 01:36 42.59360 -71.01277 5987 ft 247 kts 13°
2026-05-06 01:36 42.60894 -71.00510 5975 ft 228 kts 12°
2026-05-06 01:36 42.62378 -70.99788 5996 ft 226 kts 11°
2026-05-06 01:36 42.63851 -70.99067 5976 ft 225 kts 12°
2026-05-06 01:37 42.65317 -70.98340 5950 ft 226 kts 12°
2026-05-06 01:37 42.66801 -70.97605 5770 ft 227 kts 12°
2026-05-06 01:37 42.68261 -70.96878 5593 ft 226 kts 12°
2026-05-06 01:37 42.69729 -70.96148 5414 ft 223 kts 12°
2026-05-06 01:38 42.71160 -70.95334 5175 ft 228 kts 26°
2026-05-06 01:38 42.72115 -70.93602 4839 ft 234 kts 75°
2026-05-06 01:38 42.72039 -70.91462 4549 ft 219 kts 119°
2026-05-06 01:38 42.71174 -70.89903 4361 ft 202 kts 146°
2026-05-06 01:39 42.70173 -70.88558 4253 ft 203 kts 146°
2026-05-06 01:39 42.69177 -70.87199 4116 ft 204 kts 146°
2026-05-06 01:39 42.68131 -70.85968 3936 ft 189 kts 165°
2026-05-06 01:39 42.66975 -70.85870 3947 ft 165 kts 200°
2026-05-06 01:40 42.65851 -70.86289 4006 ft 165 kts 206°
2026-05-06 01:40 42.64766 -70.86794 4006 ft 164 kts 208°
2026-05-06 01:40 42.63703 -70.87312 4001 ft 164 kts 208°
2026-05-06 01:40 42.62621 -70.87836 3996 ft 162 kts 208°
2026-05-06 01:41 42.61567 -70.88349 3991 ft 165 kts 207°
2026-05-06 01:41 42.60476 -70.88878 3991 ft 165 kts 207°
2026-05-06 01:41 42.59408 -70.89398 3988 ft 165 kts 208°
2026-05-06 01:41 42.58321 -70.89925 3993 ft 162 kts 208°
2026-05-06 01:42 42.57260 -70.90441 3995 ft 165 kts 208°
2026-05-06 01:42 42.56171 -70.90971 3842 ft 166 kts 207°
2026-05-06 01:42 42.55084 -70.91497 3624 ft 166 kts 207°
2026-05-06 01:42 42.54007 -70.92019 3412 ft 162 kts 207°
2026-05-06 01:43 42.52956 -70.92526 3206 ft 160 kts 208°
2026-05-06 01:43 42.51904 -70.93037 2995 ft 159 kts 207°
2026-05-06 01:43 42.50882 -70.93529 2791 ft 153 kts 207°
2026-05-06 01:43 42.49879 -70.94013 2592 ft 149 kts 208°
2026-05-06 01:44 42.48980 -70.94436 2385 ft 121 kts 208°
2026-05-06 01:44 42.48264 -70.94790 2249 ft 104 kts 210°
2026-05-06 01:44 42.47622 -70.95099 2114 ft 92 kts 210°
2026-05-06 01:44 42.47042 -70.95385 2013 ft 85 kts 210°
2026-05-06 01:45 42.46484 -70.95655 1903 ft 85 kts 209°
2026-05-06 01:45 42.45941 -70.95924 1810 ft 85 kts 208°
2026-05-06 01:45 42.45366 -70.96203 1705 ft 87 kts 209°
2026-05-06 01:45 42.44794 -70.96480 1584 ft 87 kts 208°
2026-05-06 01:46 42.44228 -70.96754 1460 ft 87 kts 208°
2026-05-06 01:46 42.43653 -70.97033 1340 ft 89 kts 208°
2026-05-06 01:46 42.43051 -70.97326 1221 ft 96 kts 206°
2026-05-06 01:46 42.42409 -70.97638 1093 ft 101 kts 204°
2026-05-06 01:47 42.41742 -70.97962 957 ft 102 kts 205°
2026-05-06 01:47 42.41062 -70.98292 826 ft 106 kts 202°
2026-05-06 01:47 42.40360 -70.98636 684 ft 108 kts 200°
2026-05-06 01:47 42.39890 -70.98864 596 ft 109 kts 198°
2026-05-06 01:48 42.38956 -70.99315 402 ft 103 kts 200°
2026-05-06 01:48 42.38512 -70.99534 310 ft 97 kts 198°
2026-05-06 01:48 42.37901 -70.99833 172 ft 93 kts 198°
2026-05-06 01:48 42.37286 -71.00131 46 ft 100 kts 199°
2026-05-06 01:49 42.36699 -71.00415 22 ft 73 kts 199°
2026-05-06 01:49 42.36441 -71.00540 22 ft 17 kts 199°
2026-05-06 01:49 42.36405 -71.00675 22 ft 13 kts 291°
2026-05-06 01:49 42.36438 -71.00787 22 ft 13 kts 292°
2026-05-06 01:50 42.36472 -71.00899 22 ft 13 kts 292°
2026-05-06 01:50 42.36506 -71.01011 23 ft 13 kts 292°
2026-05-06 01:50 42.36539 -71.01121 22 ft 13 kts 292°
2026-05-06 01:50 42.36573 -71.01203 24 ft 8 kts 327°
2026-05-06 01:51 42.36633 -71.01190 22 ft 11 kts 19°
2026-05-06 01:51 42.36705 -71.01156 22 ft 11 kts 20°
2026-05-06 01:51 42.36781 -71.01147 22 ft 11 kts 341°
2026-05-06 01:51 42.36840 -71.01214 22 ft 11 kts 315°
2026-05-06 01:52 42.36894 -71.01286 23 ft 11 kts 315°
2026-05-06 01:52 42.36949 -71.01359 22 ft 11 kts 315°
2026-05-06 01:52 42.37003 -71.01432 22 ft 11 kts 315°
2026-05-06 01:52 42.37065 -71.01515 24 ft 13 kts 315°
2026-05-06 01:53 42.37127 -71.01599 22 ft 13 kts 315°
2026-05-06 01:53 42.37190 -71.01683 22 ft 13 kts 315°
2026-05-06 01:53 42.37253 -71.01767 24 ft 13 kts 315°
2026-05-06 01:53 42.37315 -71.01850 22 ft 13 kts 315°
2026-05-06 01:54 42.37378 -71.01934 22 ft 13 kts 316°
2026-05-06 01:54 42.37435 -71.02011 24 ft 8 kts 315°
2026-05-06 01:54 42.37444 -71.02074 22 ft 8 kts 235°
2026-05-06 01:54 42.37414 -71.02114 22 ft 4 kts 226°
2026-05-06 01:55 42.37424 -71.02140 22 ft 4 kts 314°
2026-05-06 01:55 42.37433 -71.02153 24 ft 0 kts 314°